QPF
0.02 0.02 0.02 0.03 0.04 0.03 0.02 0.01 0.01 0.00 0.04 0.03 0.02 0.00 0.00 0.00 0.00 0.00 0.00 0.00 0.00 0.00 0.00 0.00 0.00 0.00 0.00 0.00 0.00 0.00 0.00 0.00 0.00 0.00 0.00 0.00 0.00 0.00 0.00 0.00 0.00 0.00 0.01 0.00
0.01 0.02 0.02 0.02 0.03 0.03 0.01 0.00 0.01 0.04 0.05 0.01 0.00 0.00 0.00 0.00 0.00 0.00 0.00 0.00 0.00 0.00 0.00 0.00 0.00 0.00 0.00 0.00 0.00 0.00 0.00 0.00 0.00 0.00 0.00 0.00 0.00 0.00 0.00 0.00 0.00 0.00 0.01 0.00
0.00 0.01 0.01 0.02 0.02 0.02 0.01 0.00 0.01 0.03 0.05 0.01 0.00 0.00 0.00 0.00 0.00 0.00 0.00 0.00 0.00 0.00 0.00 0.00 0.00 0.00 0.00 0.00 0.00 0.00 0.00 0.00 0.00 0.00 0.00 0.00 0.00 0.00 0.00 0.00 0.00 0.00 0.00 0.00
0.00 0.00 0.01 0.02 0.03 0.02 0.00 0.00 0.00 0.00 0.01 0.01 0.00 0.00 0.00 0.00 0.00 0.00 0.00 0.00 0.00 0.00 0.00 0.00 0.00 0.00 0.00 0.00 0.00 0.00 0.00 0.00 0.00 0.00 0.00 0.00 0.00 0.00 0.00 0.00 0.00 0.00 0.00 0.00
0.01 0.01 0.00 0.02 0.04 0.04 0.01 0.00 0.00 0.01 0.00 0.00 0.00 0.00 0.00 0.00 0.00 0.00 0.00 0.00 0.00 0.00 0.00 0.00 0.01 0.01 0.00 0.00 0.00 0.00 0.00 0.00 0.00 0.00 0.00 0.00 0.00 0.00 0.00 0.00 0.00 0.00 0.00 0.00
0.01 0.01 0.01 0.00 0.02 0.04 0.01 0.00 0.00 0.01 0.01 0.02 0.02 0.01 0.00 0.00 0.00 0.00 0.00 0.00 0.00 0.00 0.00 0.02 0.02 0.01 0.00 0.00 0.00 0.00 0.00 0.00 0.00 0.00 0.00 0.00 0.00 0.00 0.00 0.00 0.00 0.00 0.00 0.00
0.02 0.02 0.01 0.01 0.02 0.03 0.01 0.00 0.00 0.01 0.02 0.03 0.01 0.00 0.00 0.00 0.00 0.00 0.00 0.00 0.00 0.00 0.00 0.00 0.00 0.00 0.00 0.00 0.00 0.00 0.00 0.00 0.00 0.00 0.00 0.00 0.00 0.00 0.00 0.00 0.00 0.00 0.00 0.00
0.01 0.01 0.01 0.01 0.02 0.03 0.01 0.00 0.00 0.01 0.02 0.01 0.00 0.00 0.00 0.00 0.00 0.00 0.00 0.00 0.00 0.00 0.00 0.01 0.01 0.00 0.00 0.00 0.00 0.00 0.00 0.02 0.03 0.01 0.00 0.00 0.00 0.00 0.00 0.00 0.00 0.00 0.00 0.00
0.01 0.01 0.02 0.01 0.01 0.03 0.02 0.00 0.00 0.01 0.03 0.02 0.00 0.01 0.01 0.01 0.01 0.01 0.00 0.00 0.00 0.00 0.00 0.02 0.01 0.00 0.00 0.00 0.00 0.00 0.00 0.01 0.04 0.02 0.00 0.00 0.00 0.00 0.00 0.00 0.00 0.00 0.00 0.00
0.02 0.02 0.02 0.01 0.02 0.03 0.02 0.01 0.01 0.02 0.03 0.01 0.00 0.01 0.01 0.00 0.00 0.01 0.00 0.00 0.01 0.01 0.03 0.02 0.01 0.00 0.00 0.00 0.00 0.00 0.00 0.01 0.02 0.03 0.02 0.00 0.00 0.00 0.00 0.00 0.00 0.00 0.00 0.00
0.02 0.01 0.03 0.02 0.02 0.03 0.01 0.01 0.01 0.02 0.03 0.04 0.00 0.01 0.01 0.01 0.01 0.02 0.00 0.04 0.03 0.04 0.05 0.02 0.00 0.00 0.00 0.00 0.00 0.00 0.00 0.01 0.02 0.02 0.03 0.01 0.00 0.00 0.00 0.00 0.00 0.00 0.00 0.00
0.02 0.01 0.02 0.02 0.02 0.02 0.01 0.01 0.03 0.04 0.04 0.02 0.01 0.01 0.03 0.01 0.00 0.00 0.00 0.02 0.01 0.01 0.01 0.00 0.00 0.00 0.00 0.00 0.00 0.00 0.01 0.00 0.02 0.01 0.00 0.00 0.00 0.00 0.00 0.00 0.00 0.00 0.00 0.00
0.01 0.01 0.02 0.03 0.02 0.02 0.02 0.01 0.03 0.03 0.01 0.02 0.01 0.02 0.01 0.00 0.00 0.00 0.04 0.03 0.00 0.00 0.00 0.00 0.01 0.01 0.00 0.00 0.00 0.00 0.00 0.00 0.00 0.01 0.00 0.01 0.00 0.01 0.00 0.00 0.00 0.00 0.00 0.00
0.01 0.01 0.01 0.02 0.02 0.02 0.03 0.02 0.01 0.01 0.01 0.01 0.02 0.01 0.00 0.00 0.00 0.01 0.04 0.02 0.01 0.00 0.00 0.02 0.05 0.02 0.00 0.00 0.00 0.00 0.00 0.00 0.00 0.00 0.00 0.00 0.00 0.00 0.00 0.00 0.00 0.00 0.00 0.00
0.01 0.01 0.02 0.02 0.02 0.02 0.02 0.01 0.01 0.01 0.01 0.01 0.02 0.00 0.00 0.00 0.00 0.00 0.04 0.04 0.06 0.04 0.02 0.02 0.01 0.00 0.00 0.00 0.00 0.00 0.00 0.00 0.00 0.00 0.00 0.00 0.00 0.00 0.00 0.00 0.00 0.00 0.00 0.00
0.01 0.01 0.01 0.01 0.01 0.00 0.00 0.00 0.01 0.01 0.00 0.00 0.01 0.00 0.00 0.00 0.00 0.00 0.00 0.02 0.05 0.04 0.04 0.03 0.01 0.00 0.00 0.00 0.00 0.00 0.00 0.00 0.00 0.00 0.00 0.00 0.00 0.00 0.00 0.00 0.00 0.00 0.00 0.00
0.01 0.01 0.01 0.00 0.00 0.00 0.00 0.00 0.00 0.00 0.00 0.00 0.00 0.00 0.01 0.00 0.00 0.00 0.00 0.01 0.03 0.06 0.06 0.04 0.01 0.00 0.00 0.00 0.00 0.00 0.00 0.00 0.00 0.00 0.00 0.00 0.00 0.00 0.00 0.00 0.00 0.00 0.00 0.00
0.00 0.00 0.00 0.00 0.00 0.00 0.01 0.00 0.00 0.00 0.00 0.00 0.00 0.00 0.04 0.01 0.01 0.00 0.00 0.02 0.04 0.06 0.08 0.05 0.03 0.02 0.06 0.02 0.00 0.00 0.00 0.00 0.00 0.00 0.00 0.00 0.00 0.00 0.00 0.00 0.00 0.00 0.00 0.00
0.00 0.00 0.00 0.00 0.01 0.03 0.02 0.00 0.00 0.03 0.05 0.03 0.00 0.00 0.02 0.01 0.00 0.01 0.04 0.06 0.06 0.03 0.04 0.03 0.04 0.04 0.07 0.02 0.00 0.00 0.00 0.00 0.00 0.00 0.00 0.00 0.00 0.00 0.00 0.00 0.00 0.00 0.00 0.00
0.00 0.00 0.00 0.01 0.02 0.01 0.00 0.01 0.01 0.02 0.05 0.02 0.00 0.01 0.02 0.01 0.00 0.01 0.03 0.05 0.04 0.03 0.02 0.03 0.04 0.06 0.01 0.00 0.00 0.00 0.00 0.00 0.00 0.00 0.00 0.00 0.00 0.00 0.00 0.00 0.00 0.00 0.00 0.00
0.00 0.00 0.02 0.02 0.00 0.00 0.00 0.00 0.00 0.01 0.00 0.00 0.00 0.00 0.02 0.01 0.01 0.00 0.01 0.02 0.03 0.02 0.02 0.07 0.05 0.02 0.00 0.00 0.00 0.00 0.00 0.00 0.00 0.00 0.00 0.00 0.00 0.00 0.00 0.00 0.00 0.00 0.00 0.00
0.00 0.00 0.00 0.00 0.01 0.01 0.01 0.01 0.01 0.01 0.03 0.01 0.01 0.04 0.04 0.03 0.01 0.01 0.00 0.02 0.01 0.03 0.01 0.03 0.01 0.00 0.00 0.00 0.00 0.00 0.00 0.00 0.00 0.00 0.00 0.00 0.00 0.00 0.00 0.00 0.00 0.00 0.00 0.00
0.02 0.02 0.01 0.00 0.01 0.01 0.02 0.02 0.02 0.01 0.00 0.00 0.00 0.03 0.02 0.01 0.00 0.00 0.00 0.00 0.01 0.01 0.01 0.00 0.01 0.00 0.01 0.01 0.00 0.00 0.00 0.00 0.00 0.00 0.00 0.00 0.00 0.00 0.00 0.00 0.00 0.00 0.00 0.00
0.00 0.00 0.00 0.01 0.00 0.00 0.00 0.00 0.00 0.00 0.00 0.00 0.00 0.00 0.00 0.00 0.00 0.00 0.00 0.00 0.00 0.00 0.00 0.01 0.00 0.00 0.00 0.00 0.00 0.00 0.00 0.00 0.00 0.00 0.00 0.00 0.00 0.00 0.00 0.00 0.00 0.00 0.00 0.00
0.00 0.00 0.00 0.00 0.01 0.00 0.00 0.00 0.00 0.00 0.00 0.00 0.00 0.00 0.00 0.00 0.00 0.00 0.00 0.00 0.00 0.00 0.00 0.00 0.00 0.01 0.00 0.00 0.00 0.00 0.00 0.00 0.00 0.00 0.00 0.00 0.00 0.00 0.00 0.00 0.00 0.00 0.00 0.00
0.00 0.00 0.00 0.00 0.00 0.00 0.00 0.00 0.00 0.00 0.00 0.00 0.00 0.00 0.00 0.00 0.00 0.00 0.00 0.00 0.00 0.01 0.01 0.00 0.01 0.01 0.01 0.00 0.00 0.00 0.00 0.00 0.00 0.00 0.00 0.00 0.00 0.00 0.00 0.00 0.00 0.00 0.00 0.00
0.00 0.00 0.00 0.00 0.00 0.00 0.00 0.00 0.00 0.00 0.00 0.00 0.00 0.00 0.00 0.00 0.00 0.00 0.00 0.01 0.01 0.00 0.00 0.00 0.00 0.00 0.00 0.00 0.00 0.00 0.00 0.00 0.00 0.00 0.00 0.00 0.00 0.00 0.00 0.00 0.00 0.00 0.00 0.00
MSLP
1006.71 1007.16 1007.84 1008.71 1009.64 1010.78 1011.93 1012.19 1011.78 1011.55 1012.59 1013.92 1012.55 1010.99 1005.74 1006.58 1005.79 1005.53 1003.86 1003.38 1002.08 1000.77 999.62 999.29 998.67 998.28 997.92 997.65 998.55 998.42 999.34 999.70 999.44 999.02 999.37 999.82 999.87 1000.20 1000.94 1001.26 1001.80 1001.96 1002.35 1001.23
1005.13 1005.59 1006.32 1007.05 1008.14 1009.26 1010.24 1010.49 1011.06 1010.81 1011.06 1011.26 1010.03 1008.86 1007.56 1007.05 1005.74 1004.76 1003.57 1002.79 1002.18 1001.51 1000.71 1000.74 999.17 998.84 997.81 997.53 997.89 997.76 999.19 999.68 1000.02 999.60 999.39 999.30 999.35 999.57 1000.22 1000.76 1001.16 1001.46 1002.08 1000.98
1003.91 1004.40 1004.81 1005.28 1006.57 1007.84 1009.00 1009.70 1009.80 1009.96 1010.06 1009.28 1008.90 1007.82 1005.45 1004.81 1005.72 1005.12 1004.01 1002.81 1002.46 1002.13 1001.94 1001.64 1001.05 999.76 998.15 998.07 998.25 998.36 999.30 999.77 999.39 999.17 999.79 999.36 999.19 999.14 999.75 1000.06 1000.34 1000.82 1000.68 1000.28
1002.56 1003.14 1003.72 1004.26 1004.85 1006.22 1007.45 1007.61 1007.21 1006.17 1006.71 1007.07 1005.69 1006.66 1005.14 1005.33 1005.11 1004.91 1004.34 1003.12 1001.94 1001.73 1002.25 1002.53 1002.52 1001.36 999.75 999.09 998.83 998.87 999.47 999.47 999.98 999.61 999.40 998.87 998.69 998.58 998.90 998.98 999.22 999.75 1000.06 999.10
1001.22 1001.75 1002.28 1003.17 1003.92 1004.89 1005.23 1005.76 1005.79 1005.17 1004.83 1006.26 1006.18 1005.52 1004.49 1004.02 1003.25 1003.66 1003.13 1002.48 1001.37 1001.41 1002.00 1003.18 1003.13 1003.48 1000.96 1000.62 999.73 999.41 999.74 999.80 1000.21 999.91 999.71 999.01 998.34 998.10 997.97 998.17 998.29 998.18 998.03 997.60
999.63 1000.34 1000.98 1001.75 1002.67 1003.79 1003.37 1004.71 1004.75 1003.99 1003.76 1004.52 1005.09 1004.17 1002.76 1002.26 1003.17 1002.57 1002.30 1002.10 1001.75 1001.23 1001.28 1003.21 1004.88 1005.59 1004.25 1002.11 999.89 1000.01 1000.12 1000.04 1000.16 999.92 1000.25 999.63 997.94 997.38 997.09 997.04 997.05 997.10 996.83 996.74
997.56 998.36 999.24 1000.10 1001.09 1002.02 1002.84 1003.06 1003.31 1003.71 1002.48 1002.94 1002.59 1002.80 1002.57 1002.20 1002.43 1001.95 1001.37 1001.53 1001.40 1000.56 1001.73 1003.41 1005.50 1005.37 1005.30 1004.43 1001.06 1000.09 1000.10 1000.41 1000.77 1000.89 1000.98 999.17 997.57 997.13 996.96 996.95 996.83 996.51 996.23 996.14
995.18 996.12 997.15 998.32 999.39 1000.54 1002.12 1002.27 1001.75 1001.87 1002.05 1001.57 1001.82 1001.69 1001.96 1002.24 1002.36 1001.70 1001.21 1000.26 999.97 1001.21 1002.44 1003.58 1005.33 1006.27 1006.42 1004.97 1001.68 1000.83 1001.34 1001.90 1001.85 1001.33 1000.93 999.57 997.88 997.24 997.00 996.87 996.69 996.50 996.26 995.97
992.81 993.81 994.97 996.33 997.75 999.13 1001.09 1001.27 1000.90 1001.21 1001.64 1000.61 1000.15 1000.72 1000.99 1001.15 1001.58 1001.84 1000.55 1000.39 1000.24 1000.73 1001.48 1002.78 1003.83 1004.97 1004.85 1004.22 1002.04 1001.78 1002.23 1002.92 1003.45 1002.09 1001.12 999.28 998.26 997.50 996.78 996.94 996.23 996.16 995.77 995.56
990.74 991.72 993.02 994.43 996.01 997.79 999.72 1000.14 1000.20 1000.75 1001.19 1000.62 1000.02 999.92 1000.47 1000.80 1001.08 1000.63 1000.19 1000.22 1000.46 1000.65 1000.99 1001.64 1002.62 1002.63 1002.37 1001.90 1002.16 1002.40 1003.16 1004.03 1003.92 1002.69 1000.90 998.71 997.52 997.26 997.17 996.76 996.91 996.14 995.83 995.53
988.26 989.77 991.34 992.94 994.61 996.56 998.95 999.00 999.79 999.78 1001.12 1000.47 1000.35 1001.37 1001.15 1000.86 1000.57 1000.25 999.63 1000.55 1000.99 1001.61 1001.46 1001.47 1001.55 1001.57 1001.12 1000.55 1000.58 1001.48 1002.15 1003.21 1003.23 1002.14 1000.74 999.13 997.13 996.69 996.47 996.31 995.91 995.96 995.88 995.63
987.90 989.10 990.20 991.26 993.26 995.30 997.50 998.09 999.15 1000.11 1001.38 1001.61 1001.22 1001.23 1001.62 1001.59 1000.50 1000.44 999.45 999.97 1000.32 1001.17 1001.35 1000.49 1000.91 1000.17 999.67 999.63 999.36 1000.06 1000.91 1001.11 1001.59 1000.40 999.33 998.56 997.35 996.87 996.14 995.94 995.98 995.81 995.58 995.49
987.63 988.87 990.11 990.48 993.04 995.45 996.70 997.85 998.75 999.94 1001.10 1001.94 1001.26 1000.80 1001.35 1001.24 1000.71 999.64 999.12 999.23 999.98 1000.83 1000.69 1000.27 1000.07 999.56 999.25 999.22 998.93 999.20 999.46 999.95 999.94 999.63 998.57 998.58 998.14 997.78 996.90 996.60 996.55 996.03 995.60 995.59
987.30 988.87 990.52 992.17 993.96 996.11 997.38 997.85 998.69 999.77 1001.53 1001.08 1000.90 1000.36 1000.47 1000.60 1000.61 999.93 999.91 1000.24 999.35 999.89 999.97 999.53 999.86 999.41 998.58 998.77 998.60 998.26 998.55 998.44 998.45 998.11 997.98 997.79 997.54 997.64 997.03 996.60 996.21 996.20 996.29 996.54
988.79 990.13 991.71 993.23 994.85 996.12 997.22 998.49 999.45 1000.32 1000.91 1000.83 1000.75 1000.12 999.96 1000.14 1000.00 999.97 1000.28 1000.30 1000.29 1000.28 1000.34 999.89 999.23 998.95 998.64 998.15 998.37 997.91 997.65 997.79 997.81 997.58 997.60 997.83 997.97 997.86 997.27 997.70 997.20 996.64 996.46 996.63
991.02 992.14 993.17 994.54 995.71 996.61 997.75 999.79 1000.85 1000.98 1001.04 1001.05 1000.47 1000.08 999.59 999.73 999.97 1000.18 1000.44 1000.99 1000.82 1000.72 1000.59 999.99 999.04 998.14 998.54 998.51 998.30 998.23 997.89 997.66 997.59 997.39 997.51 997.69 997.96 998.11 998.05 998.03 997.74 997.07 996.66 996.87
993.00 993.99 995.09 995.97 996.77 997.30 998.26 999.02 999.68 1000.43 1000.58 1000.10 1000.03 999.82 999.47 999.32 999.92 1000.47 1000.69 1000.80 1000.84 1001.09 1000.58 999.44 998.93 998.71 998.82 999.26 999.21 998.68 998.08 997.85 997.63 997.58 997.81 997.69 998.01 998.50 998.67 998.81 998.50 997.94 997.38 997.23
994.83 995.67 996.51 997.25 997.74 998.25 998.63 999.22 999.69 1000.02 999.99 1000.05 1000.05 1000.49 1000.12 999.75 1000.07 1000.66 1000.61 1000.71 1001.13 1001.28 1001.20 999.82 999.34 999.13 999.40 1000.54 1000.66 1000.58 1000.15 999.20 998.49 998.41 998.22 998.86 999.15 999.43 999.47 999.70 999.56 999.39 998.91 998.70
996.17 996.81 997.38 998.01 998.99 999.55 1000.07 1000.18 1000.09 1000.38 1000.86 1000.35 1000.68 1000.69 1000.64 1000.58 1000.73 1000.79 1000.52 1000.71 1001.55 1001.77 999.96 999.39 999.54 1000.09 1002.14 1004.11 1004.13 1003.57 1002.83 1001.90 1001.00 1000.28 1000.21 1000.17 1000.24 1000.30 1000.31 1000.64 1000.79 1000.78 1000.87 1001.06
997.27 997.24 998.02 999.36 1000.15 1000.14 1000.17 1000.79 1000.84 1000.70 1000.44 1000.62 1000.75 1000.39 1001.05 1001.66 1001.34 1001.09 1000.83 1001.05 1001.84 1000.49 999.77 999.51 1000.48 1003.35 1005.42 1006.31 1006.22 1005.75 1004.96 1003.98 1002.61 1001.73 1001.51 1001.49 1001.40 1001.20 1001.41 1001.86 1002.21 1002.38 1003.01 1003.63
997.41 998.17 999.35 1000.45 1000.97 1000.90 1000.98 1001.23 1001.24 1001.17 1001.34 1000.87 1000.43 1000.36 1000.67 1001.54 1001.77 1001.36 1000.99 1001.68 1001.92 1001.03 1000.15 1000.99 1001.95 1005.37 1007.12 1007.48 1007.42 1007.00 1006.24 1005.38 1004.72 1003.94 1003.69 1003.40 1003.03 1002.59 1002.88 1003.78 1004.29 1004.95 1005.92 1006.86
998.48 998.63 1000.09 1000.95 1001.34 1001.47 1001.47 1001.60 1001.61 1001.29 1000.84 1000.85 1000.64 1000.12 1000.06 1000.98 1000.94 1001.61 1001.77 1001.70 1002.03 1001.49 1001.93 1002.89 1004.59 1007.87 1008.54 1008.67 1008.46 1008.06 1007.56 1007.03 1006.66 1006.34 1006.05 1005.90 1005.66 1005.59 1005.99 1006.62 1007.23 1007.84 1008.51 1009.66
998.76 998.85 1000.28 1001.13 1001.43 1001.79 1002.03 1002.29 1001.94 1001.90 1002.28 1002.21 1001.69 1000.89 1000.40 1000.46 1000.88 1000.59 1000.56 1000.91 1001.83 1002.16 1003.55 1005.79 1008.32 1009.36 1009.45 1009.33 1009.27 1009.14 1008.96 1008.66 1008.42 1008.33 1008.21 1008.01 1008.04 1008.13 1008.32 1009.05 1009.71 1010.01 1010.65 1011.79
999.88 1000.42 1001.44 1002.35 1003.26 1004.07 1004.55 1004.50 1003.94 1003.84 1003.80 1003.22 1002.53 1001.75 1001.44 1001.42 1001.20 1001.23 1001.49 1002.36 1002.74 1004.24 1006.34 1009.06 1010.57 1010.57 1010.69 1010.52 1010.37 1010.14 1010.22 1010.22 1010.19 1010.17 1010.14 1010.11 1010.18 1010.38 1010.69 1011.13 1011.59 1011.99 1012.64 1013.39
1001.97 1002.61 1003.87 1004.95 1005.71 1005.99 1006.07 1005.78 1004.98 1004.81 1004.29 1003.86 1003.34 1002.75 1002.32 1002.38 1002.61 1003.36 1003.41 1004.40 1006.47 1008.18 1010.17 1011.61 1012.13 1011.97 1011.80 1011.60 1011.54 1011.62 1011.70 1011.80 1011.83 1012.02 1012.04 1012.16 1012.26 1012.44 1012.90 1013.41 1013.80 1014.14 1014.57 1015.15
1004.78 1006.38 1006.70 1007.12 1006.67 1006.96 1006.83 1006.61 1005.89 1005.58 1004.92 1004.09 1003.78 1003.52 1003.68 1004.53 1005.28 1005.77 1007.04 1008.20 1010.20 1012.06 1013.12 1013.71 1013.62 1013.35 1013.19 1013.13 1013.07 1013.04 1013.06 1013.12 1013.29 1013.53 1013.75 1013.97 1014.12 1014.36 1014.80 1015.17 1015.59 1016.04 1016.40 1016.91
1006.99 1008.48 1009.11 1008.86 1008.62 1008.44 1007.88 1007.30 1006.81 1006.14 1005.66 1005.16 1005.15 1005.66 1006.74 1006.95 1008.16 1009.91 1011.31 1012.48 1013.78 1014.48 1014.99 1015.11 1015.16 1015.02 1014.93 1014.78 1014.53 1014.51 1014.57 1014.65 1014.90 1015.09 1015.33 1015.66 1015.97 1016.11 1016.27 1016.67 1017.54 1017.85 1018.29 1018.53
Thickness
5454 5455 5453 5450 5446 5440 5431 5433 5443 5452 5442 5428 5444 5478 5544 5541 5542 5548 5567 5571 5580 5598 5628 5630 5638 5640 5653 5672 5663 5653 5659 5651 5640 5657 5674 5677 5673 5663 5661 5642 5643 5654 5638 5646
5453 5453 5450 5449 5444 5437 5431 5431 5432 5442 5442 5434 5459 5494 5515 5520 5532 5537 5554 5564 5580 5593 5599 5593 5625 5632 5659 5665 5660 5656 5653 5636 5621 5635 5656 5666 5660 5668 5666 5665 5662 5645 5613 5643
5446 5446 5446 5446 5440 5433 5425 5417 5420 5430 5429 5458 5467 5489 5523 5529 5524 5524 5537 5557 5572 5580 5581 5589 5596 5619 5647 5650 5650 5647 5644 5636 5632 5623 5631 5657 5651 5661 5664 5660 5637 5640 5639 5651
5438 5438 5437 5438 5437 5429 5419 5411 5419 5453 5444 5452 5492 5488 5515 5507 5507 5518 5525 5537 5556 5571 5569 5569 5575 5601 5621 5631 5629 5642 5633 5620 5629 5643 5654 5663 5661 5660 5661 5658 5662 5634 5642 5658
5430 5430 5430 5427 5426 5423 5417 5401 5419 5448 5465 5455 5461 5475 5500 5509 5522 5516 5521 5530 5556 5568 5565 5562 5569 5562 5609 5603 5620 5625 5627 5615 5624 5623 5643 5651 5650 5661 5664 5665 5664 5666 5668 5665
5418 5417 5417 5416 5414 5410 5417 5402 5421 5438 5452 5447 5447 5466 5503 5514 5514 5516 5525 5533 5541 5551 5572 5563 5552 5545 5567 5590 5614 5607 5610 5614 5614 5606 5630 5634 5623 5650 5663 5669 5673 5670 5657 5674
5405 5402 5400 5399 5399 5395 5399 5402 5421 5411 5430 5442 5462 5477 5491 5501 5501 5510 5525 5527 5531 5558 5570 5553 5542 5547 5549 5553 5596 5610 5609 5608 5610 5596 5597 5590 5640 5664 5665 5658 5662 5672 5675 5679
5391 5389 5388 5387 5386 5387 5383 5396 5414 5423 5425 5459 5462 5474 5479 5485 5487 5496 5509 5528 5548 5553 5545 5536 5517 5517 5519 5544 5581 5594 5596 5590 5588 5586 5592 5615 5635 5649 5649 5645 5648 5667 5666 5675
5388 5386 5386 5385 5384 5385 5380 5392 5413 5421 5426 5445 5476 5471 5477 5480 5481 5486 5509 5524 5535 5540 5541 5532 5519 5514 5528 5530 5561 5580 5581 5577 5569 5586 5582 5584 5621 5646 5662 5658 5625 5666 5671 5672
5378 5376 5378 5381 5384 5383 5382 5395 5408 5412 5415 5445 5462 5466 5469 5478 5481 5491 5508 5513 5516 5529 5528 5523 5524 5531 5556 5545 5543 5543 5547 5545 5550 5571 5579 5607 5639 5647 5652 5617 5626 5662 5668 5671
5381 5373 5371 5373 5377 5379 5378 5396 5402 5415 5410 5439 5448 5444 5456 5469 5478 5484 5508 5498 5503 5495 5509 5521 5531 5529 5550 5561 5569 5552 5547 5540 5547 5567 5572 5579 5641 5642 5626 5647 5660 5661 5660 5665
5370 5369 5371 5377 5377 5383 5387 5399 5405 5409 5408 5417 5433 5442 5444 5455 5474 5480 5497 5501 5505 5507 5499 5528 5532 5538 5548 5561 5553 5574 5551 5565 5560 5582 5594 5611 5627 5631 5648 5652 5651 5654 5657 5662
5370 5368 5370 5382 5381 5379 5392 5398 5403 5404 5405 5413 5427 5439 5442 5450 5463 5483 5492 5504 5503 5498 5518 5526 5532 5531 5553 5541 5555 5569 5572 5576 5570 5577 5600 5601 5615 5617 5632 5639 5636 5649 5653 5653
5382 5379 5378 5379 5381 5380 5388 5399 5406 5406 5405 5409 5426 5440 5446 5453 5459 5472 5483 5488 5508 5512 5517 5523 5521 5529 5555 5551 5561 5564 5573 5580 5579 5585 5597 5602 5608 5612 5615 5627 5636 5638 5641 5638
5386 5384 5382 5382 5382 5387 5394 5399 5403 5405 5413 5419 5422 5441 5450 5453 5460 5468 5474 5485 5491 5493 5497 5509 5522 5537 5545 5556 5557 5561 5577 5574 5569 5573 5595 5589 5594 5600 5614 5614 5622 5629 5629 5627
5384 5383 5384 5383 5384 5391 5395 5385 5389 5400 5409 5416 5423 5441 5451 5455 5459 5463 5471 5473 5480 5492 5488 5504 5523 5543 5542 5536 5548 5565 5573 5578 5581 5580 5589 5590 5591 5594 5597 5601 5607 5616 5621 5622
5381 5380 5380 5383 5387 5396 5403 5405 5408 5408 5413 5429 5432 5438 5452 5458 5457 5456 5462 5469 5474 5484 5496 5511 5522 5533 5540 5534 5537 5562 5569 5571 5577 5578 5577 5583 5586 5583 5584 5585 5592 5601 5609 5610
5381 5381 5382 5385 5391 5398 5402 5406 5408 5412 5420 5429 5431 5424 5438 5450 5447 5446 5460 5464 5471 5478 5481 5505 5517 5531 5534 5527 5536 5537 5542 5554 5567 5565 5571 5569 5569 5568 5571 5571 5574 5576 5585 5588
5383 5384 5387 5390 5388 5390 5394 5398 5406 5410 5413 5420 5415 5421 5432 5437 5436 5445 5459 5464 5451 5470 5495 5507 5515 5520 5504 5476 5481 5498 5514 5528 5538 5547 5548 5550 5552 5554 5558 5557 5557 5559 5559 5559
5384 5390 5389 5382 5382 5389 5395 5398 5402 5409 5414 5416 5411 5433 5430 5421 5427 5440 5456 5460 5454 5482 5498 5509 5506 5470 5454 5451 5462 5473 5485 5501 5523 5534 5536 5538 5540 5545 5544 5543 5542 5543 5538 5529
5396 5392 5384 5383 5383 5389 5391 5391 5398 5406 5401 5416 5428 5436 5440 5427 5431 5437 5456 5454 5457 5473 5497 5495 5503 5447 5438 5441 5452 5460 5470 5485 5495 5508 5511 5515 5522 5530 5528 5516 5508 5499 5488 5480
5395 5397 5389 5385 5385 5387 5397 5398 5398 5411 5427 5425 5433 5442 5450 5437 5443 5431 5438 5453 5454 5481 5464 5467 5454 5424 5426 5432 5440 5446 5452 5460 5463 5468 5473 5474 5477 5479 5473 5468 5463 5460 5456 5447
5398 5403 5389 5389 5397 5401 5405 5406 5415 5416 5400 5401 5410 5429 5435 5445 5439 5442 5457 5470 5470 5458 5460 5437 5416 5410 5418 5424 5429 5433 5435 5437 5439 5439 5441 5444 5443 5443 5443 5437 5433 5432 5427 5418
5396 5398 5396 5394 5386 5379 5371 5374 5385 5388 5387 5393 5406 5420 5423 5426 5441 5442 5464 5448 5455 5461 5442 5406 5392 5401 5403 5408 5412 5417 5416 5416 5417 5418 5418 5419 5419 5418 5416 5413 5410 5407 5401 5394
5382 5385 5377 5370 5363 5361 5362 5364 5377 5381 5384 5394 5408 5418 5432 5433 5440 5430 5449 5449 5421 5407 5393 5378 5380 5387 5391 5395 5397 5397 5396 5396 5396 5396 5395 5394 5393 5392 5388 5383 5380 5377 5372 5367
5363 5349 5356 5354 5365 5360 5361 5363 5374 5375 5382 5398 5408 5427 5433 5423 5419 5417 5407 5412 5389 5373 5364 5360 5365 5372 5375 5377 5379 5380 5380 5380 5378 5376 5373 5371 5368 5366 5362 5358 5355 5350 5347 5341
5355 5343 5339 5345 5351 5352 5359 5364 5368 5374 5385 5410 5415 5412 5403 5417 5400 5378 5371 5365 5354 5350 5347 5348 5349 5353 5355 5357 5361 5361 5361 5360 5357 5355 5352 5349 5345 5343 5341 5337 5328 5324 5319 5315